Back to catalog

TIANQI 33

AliveCommunicationsLEO
NORAD 62365·PAYLOAD·🇨🇳 China

Launched Dec 19, 2024 from Yellow Sea Launch Area

Loading…

Next Passes (next 24 hours)

TLE

FreshSource: Space-Track

Epoch: Sep 14, 2026, 11:43 UTC

1 62365U 24245A   26257.48823991 -.00000026  00000-0  70588-4 0  9996
2 62365  44.9833 284.6716 0005736  72.9242 287.2219 13.99232209 88867

Track TIANQI 33 in real time with AllMySat

Download on the App Store